Regional Weather Roundup
Issued by NWS Sterling, VA

Home | Current Version | Previous Version | Graphics & Text | Print | Product List | Glossary On
Versions: 1 2 3 4 5 6 7 8 9 10 11 12 13 14 15 16 17 18 19 20 21 22 23 24 25 26 27 28 29 30 31 32 33 34 35 36 37 38 39 40 41 42 43 44 45 46 47 48 49 50
000
ASUS41 KLWX 010410
RWRLWX

REGIONAL WEATHER ROUNDUP
NATIONAL WEATHER SERVICE BALTIMORE MD/WASHINGTON DC
1200 AM EDT FRI AUG 01 2014

Note: "FAIR" indicates few or no clouds below 12,000 feet
with no significant weather and/or obstructions to visibility.
 TC=TEMPERATURE CELSIUS

 * =Non NWS site. Station does not report precipitation (e.g. rain,
    snow, etc.), thunder, or fog.

DCZ001-MDZ009-015-VAZ040>042-051-053>054-010500-
WASHINGTON METRO
  /KDAA//-FT BELVOIR

CITY           SKY/WX    TMP DP  RH WIND       PRES   REMARKS
WASHINGTON NAT MOCLDY    77  65  66 S6        30.14R
DULLES         PTCLDY    72  64  76 S6        30.14R
ANDREWS AFB    MOCLDY    72  66  82 S6        30.14R
QUANTICO       MOCLDY    76  67  73 SW6       30.14S
COLLEGE PARK*  MOCLDY    73  64  73 CALM      30.13S
LEESBURG*      PTCLDY    70  66  88 CALM      30.14S
MANASSAS*      MOCLDY    70  68  94 CALM      30.14R
GAITHERSBURG*  CLEAR     73  63  68 CALM      30.17S

$$

MDZ006>007-011-014-010500-
BALTIMORE METRO

CITY           SKY/WX    TMP DP  RH WIND       PRES   REMARKS
BWI AIRPORT    MOCLDY    74  64  71 S3        30.13R
MD SCIENCE CTR   N/A     77  65  66 MISG      30.13R
MARTIN STATE   MOCLDY    77  68  73 S5        30.14R
ANNAPOLIS      MOCLDY    75  66  73 S6        30.13S
FORT MEADE*    MOCLDY    66  64  94 S3        30.15S

$$

MDZ012-015-019>023-010500-
MARYLAND EASTERN SHORE

CITY           SKY/WX    TMP DP  RH WIND       PRES   REMARKS
OCEAN CITY     CLEAR     74  69  85 SW5       30.17R
SALISBURY      PTCLDY    72  66  81 S5        30.17R
BAY BRIDGE AP*   N/A     75  72  88 S6        30.14R
CAMBRIDGE*     MOCLDY    72  68  88 CALM      30.15R
EASTON*        MOCLDY    76  71  86 S6        30.18R

$$

MDZ017>025-010500-
SOUTHERN MARYLAND

CITY           SKY/WX    TMP DP  RH WIND       PRES   REMARKS
PATUXENT RIVER MOCLDY    73  67  81 S5        30.15R
ST INIGOES     MOCLDY    76  67  73 S6        30.14R
LEONARDTOWN*   MOCLDY    72  64  78 S3        30.17R

$$

MDZ003>005-010500-
NORTH CENTRAL MARYLAND

CITY           SKY/WX    TMP DP  RH WIND       PRES   REMARKS
FREDERICK*     CLOUDY    66  66 100 CALM      30.15S
HAGERSTOWN APT CLEAR     72  60  66 CALM      30.13S
WESTMINSTER*   CLEAR     73  66  78 S3        30.15R

$$

MDZ501>502-010500-
WESTERN MARYLAND

CITY           SKY/WX    TMP DP  RH WIND       PRES   REMARKS
OAKLAND*       CLEAR     61  59  94 S3        30.23R
CUMBERLAND*    CLEAR     66  61  82 NE3       30.18R

$$

VAZ025>031-010500-
SHENANDOAH VALLEY

CITY           SKY/WX    TMP DP  RH WIND       PRES   REMARKS
WINCHESTER*    PTCLDY    64  63  94 CALM      30.13S
STAUNTON*      MOCLDY    68  62  81 CALM      30.19S

$$

WVZ021-048>050-054>055-010500-
EASTERN WEST VIRGINIA PANHANDLE

CITY           SKY/WX    TMP DP  RH WIND       PRES   REMARKS
MARTINSBURG    CLEAR     67  61  81 CALM      30.13S
PETERSBURG*    CLEAR     63  57  80 CALM      30.17R

$$

VAZ036>039-050-010500-
CENTRAL FOOTHILLS

CITY           SKY/WX    TMP DP  RH WIND       PRES   REMARKS
CHARLOTTESVILL CLOUDY    72  65  78 S6        30.14S
ORANGE*        CLOUDY    70  64  83 CALM      30.16R

$$

VAZ055>057-010500-
NORTH AND CENTRAL PIEDMONT

CITY           SKY/WX    TMP DP  RH WIND       PRES   REMARKS
FREDERICKSBRG* CLOUDY    72  67  84 CALM      30.14R
STAFFORD*      CLOUDY    67  67 100 CALM      30.18R

$$

NCZ024-NYZ072-PAZ021-071-VAZ022-071-010500-
OTHER REGIONAL OBSERVATIONS

CITY           SKY/WX    TMP DP  RH WIND       PRES   REMARKS
NEW YORK CITY  PTCLDY    75  64  68 VRB7      30.17R
PHILADELPHIA   MOCLDY    74  67  78 S5        30.15R
PITTSBURGH     PTCLDY    66  62  87 S3        30.13S
ROANOKE        CLOUDY    71  61  70 NE3       30.20R
RICHMOND       CLOUDY    75  68  78 S5        30.15R
RALEIGH        LGT RAIN  70  67  90 CALM      30.17S

$$

ANZ530>537-010500-
MARINE OBSERVATIONS

STATION/POSITION TIME  TEMP    WIND        PRES
                       AIR SEA DIR/SP/G
                 (UTC) (F)     (DEG/KT/KT) (MB)
THOMAS PT LIGHT  0400   78 78  180/ 14/ 15 1020.9R
BALT KEY BRIDGE  0400   77     170/  9/ 11 1019.7S
COVE POINT       0400   76     200/ 10/ 12 1020.5S
LEWISETTA        0400   75 79  200/  7/  8 1020.6R
SOLOMONS ISLAND  0400      80                N/A
PINEY POINT      0400          200/  8/ 10   N/A

$$



USA.gov is the U.S. government's official web portal to all federal, state and local government web resources and services.